| time (UTC) | temp F | wind direction | speed MPH | gust MPH | rain 1hr in | rain 24hr in | rain mn in | humidity % | barometer mb |
| 20260509175144 | 84 | 153 | 1.0 | 5.0 | 0.00 | 0.00 | 0.00 | 26 | 1010.2 |
| 20260509174639 | 84 | 170 | 1.0 | 7.0 | 0.00 | 0.00 | 0.00 | 26 | 1010.3 |
| 20260509174134 | 83 | 224 | 3.0 | 5.0 | 0.00 | 0.00 | 0.00 | 27 | 1010.0 |
| 20260509173630 | 83 | 221 | 2.0 | 6.0 | 0.00 | 0.00 | 0.00 | 27 | 1010.3 |
| 20260509173126 | 82 | 169 | 1.0 | 3.0 | 0.00 | 0.00 | 0.00 | 30 | 1010.3 |
| 20260509172623 | 81 | 185 | 1.0 | 2.0 | 0.00 | 0.00 | 0.00 | 30 | 1010.6 |
| 20260509172119 | 80 | 225 | 2.0 | 6.0 | 0.00 | 0.00 | 0.00 | 31 | 1010.7 |
| 20260509171615 | 79 | 182 | 2.0 | 5.0 | 0.00 | 0.00 | 0.00 | 31 | 1010.7 |
| 20260509171111 | 79 | 195 | 2.0 | 3.0 | 0.00 | 0.00 | 0.00 | 32 | 1010.9 |
| 20260509170608 | 78 | 259 | 2.0 | 2.0 | 0.00 | 0.00 | 0.00 | 34 | 1010.9 |
| 20260509170104 | 77 | 212 | 1.0 | 5.0 | 0.00 | 0.00 | 0.00 | 34 | 1010.9 |
| 20260509165602 | 78 | 219 | 1.0 | 5.0 | 0.00 | 0.00 | 0.00 | 33 | 1011.1 |
| 20260509165058 | 78 | 258 | 2.0 | 10.0 | 0.00 | 0.00 | 0.00 | 33 | 1011.0 |
| 20260509164554 | 79 | 298 | 1.0 | 7.0 | 0.00 | 0.00 | 0.00 | 33 | 1011.2 |
| 20260509164050 | 77 | 211 | 1.0 | 3.0 | 0.00 | 0.00 | 0.00 | 35 | 1011.3 |
| 20260509163549 | 75 | 154 | 2.0 | 2.0 | 0.00 | 0.00 | 0.00 | 36 | 1011.2 |
| 20260509163044 | 74 | 158 | 1.0 | 2.0 | 0.00 | 0.00 | 0.00 | 37 | 1011.2 |
| 20260509162541 | 74 | 184 | 1.0 | 2.0 | 0.00 | 0.00 | 0.00 | 37 | 1011.3 |
| 20260509162036 | 74 | 278 | 4.0 | 5.0 | 0.00 | 0.00 | 0.00 | 37 | 1011.4 |
| 20260509161533 | 74 | 249 | 3.0 | 6.0 | 0.00 | 0.00 | 0.00 | 37 | 1011.5 |
| 20260509161028 | 74 | 258 | 4.0 | 7.0 | 0.00 | 0.00 | 0.00 | 38 | 1011.6 |
| 20260509160524 | 74 | 206 | 2.0 | 5.0 | 0.00 | 0.00 | 0.00 | 39 | 1011.6 |
| 20260509160020 | 74 | 247 | 2.0 | 5.0 | 0.00 | 0.00 | 0.00 | 40 | 1011.3 |
| 20260509155516 | 73 | 231 | 1.0 | 3.0 | 0.00 | 0.00 | 0.00 | 40 | 1011.6 |
| 20260509155012 | 73 | 231 | 1.0 | 3.0 | 0.00 | 0.00 | 0.00 | 40 | 1011.6 |
| 20260509154509 | 73 | 236 | 3.0 | 5.0 | 0.00 | 0.00 | 0.00 | 41 | 1011.4 |
| 20260509154007 | 73 | 191 | 1.0 | 2.0 | 0.00 | 0.00 | 0.00 | 42 | 1011.4 |
| 20260509153503 | 72 | 172 | 1.0 | 2.0 | 0.00 | 0.00 | 0.00 | 42 | 1011.4 |
| 20260509153000 | 72 | 174 | 1.0 | 3.0 | 0.00 | 0.00 | 0.00 | 42 | 1011.4 |
| 20260509152455 | 71 | 190 | 2.0 | 3.0 | 0.00 | 0.00 | 0.00 | 42 | 1011.6 |
| 20260509151952 | 71 | 250 | 2.0 | 6.0 | 0.00 | 0.00 | 0.00 | 42 | 1011.5 |
| 20260509151449 | 71 | 169 | 1.0 | 3.0 | 0.00 | 0.00 | 0.00 | 43 | 1011.4 |
| 20260509150947 | 71 | 174 | 1.0 | 2.0 | 0.00 | 0.00 | 0.00 | 44 | 1011.6 |
| 20260509150444 | 70 | 164 | 0.0 | 1.0 | 0.00 | 0.00 | 0.00 | 45 | 1011.2 |
| 20260509145942 | 70 | 205 | 2.0 | 3.0 | 0.00 | 0.00 | 0.00 | 44 | 1011.5 |
| 20260509145437 | 70 | 245 | 1.0 | 2.0 | 0.00 | 0.00 | 0.00 | 44 | 1011.7 |
| 20260509144933 | 70 | 195 | 1.0 | 5.0 | 0.00 | 0.00 | 0.00 | 43 | 1011.6 |
| 20260509144430 | 70 | 186 | 2.0 | 6.0 | 0.00 | 0.00 | 0.00 | 43 | 1011.5 |
| 20260509143927 | 70 | 244 | 5.0 | 9.0 | 0.00 | 0.00 | 0.00 | 42 | 1011.5 |
| 20260509143424 | 70 | 219 | 2.0 | 5.0 | 0.00 | 0.00 | 0.00 | 42 | 1011.2 |
| 20260509142920 | 70 | 222 | 2.0 | 7.0 | 0.00 | 0.00 | 0.00 | 43 | 1011.1 |
| 20260509142417 | 70 | 279 | 2.0 | 5.0 | 0.00 | 0.00 | 0.00 | 43 | 1011.2 |
| 20260509141913 | 69 | 247 | 2.0 | 5.0 | 0.00 | 0.00 | 0.00 | 44 | 1011.1 |
| 20260509141410 | 69 | 256 | 3.0 | 5.0 | 0.00 | 0.00 | 0.00 | 44 | 1011.2 |
| 20260509140907 | 68 | 218 | 1.0 | 3.0 | 0.00 | 0.00 | 0.00 | 46 | 1011.1 |
| 20260509140403 | 68 | 256 | 3.0 | 5.0 | 0.00 | 0.00 | 0.00 | 47 | 1011.2 |
| 20260509135901 | 68 | 251 | 2.0 | 5.0 | 0.00 | 0.00 | 0.00 | 47 | 1011.0 |
| 20260509135358 | 68 | 220 | 2.0 | 5.0 | 0.00 | 0.00 | 0.00 | 49 | 1010.9 |
| 20260509134856 | 67 | 258 | 0.0 | 2.0 | 0.00 | 0.00 | 0.00 | 50 | 1011.0 |
| 20260509134353 | 67 | 198 | 0.0 | 3.0 | 0.00 | 0.00 | 0.00 | 50 | 1010.9 |
| 20260509133850 | 66 | 134 | 3.0 | 6.0 | 0.00 | 0.00 | 0.00 | 50 | 1011.0 |
| 20260509133346 | 65 | 279 | 0.0 | 0.0 | 0.00 | 0.00 | 0.00 | 52 | 1011.2 |
| 20260509132845 | 65 | 216 | 2.0 | 3.0 | 0.00 | 0.00 | 0.00 | 54 | 1010.9 |
| 20260509132343 | 64 | 194 | 1.0 | 5.0 | 0.00 | 0.00 | 0.00 | 55 | 1010.9 |
| 20260509131840 | 63 | 197 | 1.0 | 3.0 | 0.00 | 0.00 | 0.00 | 56 | 1010.6 |
| 20260509131336 | 62 | 184 | 0.0 | 0.0 | 0.00 | 0.00 | 0.00 | 57 | 1010.8 |
| 20260509130833 | 61 | 189 | 0.0 | 3.0 | 0.00 | 0.00 | 0.00 | 59 | 1010.8 |
| 20260509130329 | 61 | 180 | 1.0 | 1.0 | 0.00 | 0.00 | 0.00 | 58 | 1010.6 |
| 20260509125826 | 61 | 172 | 0.0 | 0.0 | 0.00 | 0.00 | 0.00 | 58 | 1010.6 |
| 20260509125322 | 61 | 163 | 0.0 | 0.0 | 0.00 | 0.00 | 0.00 | 59 | 1011.0 |
| 20260509124818 | 60 | 207 | 0.0 | 0.0 | 0.00 | 0.00 | 0.00 | 60 | 1010.8 |
| 20260509124315 | 59 | 248 | 1.0 | 2.0 | 0.00 | 0.00 | 0.00 | 61 | 1010.5 |
| 20260509123814 | 59 | 238 | 0.0 | 5.0 | 0.00 | 0.00 | 0.00 | 60 | 1010.7 |
| 20260509123310 | 58 | 236 | 1.0 | 3.0 | 0.00 | 0.00 | 0.00 | 60 | 1010.7 |
| 20260509122806 | 58 | 192 | 0.0 | 1.0 | 0.00 | 0.00 | 0.00 | 60 | 1010.5 |
| 20260509122306 | 57 | 188 | 0.0 | 1.0 | 0.00 | 0.00 | 0.00 | 61 | 1010.5 |
| 20260509121800 | 56 | 197 | 0.0 | 1.0 | 0.00 | 0.00 | 0.00 | 62 | 1010.6 |
| 20260509121257 | 55 | 209 | 0.0 | 2.0 | 0.00 | 0.00 | 0.00 | 63 | 1010.5 |
| 20260509120755 | 54 | 235 | 2.0 | 5.0 | 0.00 | 0.00 | 0.00 | 64 | 1010.4 |
| 20260509120253 | 54 | 191 | 0.0 | 0.0 | 0.00 | 0.00 | 0.00 | 64 | 1010.4 |
| 20260509115751 | 53 | 208 | 1.0 | 1.0 | 0.00 | 0.00 | 0.00 | 64 | 1010.4 |
| 20260509115247 | 53 | 227 | 0.0 | 2.0 | 0.00 | 0.00 | 0.00 | 64 | 1010.5 |
| 20260509114745 | 53 | 213 | 0.0 | 1.0 | 0.00 | 0.00 | 0.00 | 65 | 1010.4 |
| 20260509114244 | 52 | 191 | 0.0 | 2.0 | 0.00 | 0.00 | 0.00 | 66 | 1010.5 |
| 20260509113742 | 52 | 224 | 0.0 | 2.0 | 0.00 | 0.00 | 0.00 | 65 | 1010.5 |
| 20260509113239 | 52 | 203 | 1.0 | 2.0 | 0.00 | 0.00 | 0.00 | 65 | 1010.4 |
| 20260509112736 | 52 | 203 | 1.0 | 2.0 | 0.00 | 0.00 | 0.00 | 65 | 1010.3 |
| 20260509112233 | 52 | 246 | 0.0 | 3.0 | 0.00 | 0.00 | 0.00 | 65 | 1010.5 |
| 20260509111730 | 51 | 201 | 1.0 | 2.0 | 0.00 | 0.00 | 0.00 | 66 | 1010.2 |
| 20260509111227 | 51 | 185 | 1.0 | 2.0 | 0.00 | 0.00 | 0.00 | 66 | 1010.3 |
| 20260509110724 | 51 | 187 | 1.0 | 2.0 | 0.00 | 0.00 | 0.00 | 66 | 1010.4 |
| 20260509110221 | 51 | 192 | 1.0 | 2.0 | 0.00 | 0.00 | 0.00 | 66 | 1010.4 |
| 20260509105719 | 51 | 203 | 1.0 | 3.0 | 0.00 | 0.00 | 0.00 | 66 | 1010.7 |
| 20260509105216 | 51 | 214 | 1.0 | 2.0 | 0.00 | 0.00 | 0.00 | 66 | 1010.3 |
| 20260509104713 | 51 | 177 | 0.0 | 2.0 | 0.00 | 0.00 | 0.00 | 66 | 1010.4 |
| 20260509104210 | 51 | 179 | 0.0 | 0.0 | 0.00 | 0.00 | 0.00 | 66 | 1010.5 |
| 20260509103708 | 51 | 181 | 0.0 | 1.0 | 0.00 | 0.00 | 0.00 | 65 | 1010.3 |
| 20260509103205 | 51 | 188 | 0.0 | 1.0 | 0.00 | 0.00 | 0.00 | 65 | 1010.4 |
| 20260509102704 | 52 | 203 | 1.0 | 1.0 | 0.00 | 0.00 | 0.00 | 65 | 1010.6 |
| 20260509102200 | 51 | 182 | 0.0 | 1.0 | 0.00 | 0.00 | 0.00 | 65 | 1010.6 |
| 20260509101656 | 52 | 188 | 1.0 | 1.0 | 0.00 | 0.00 | 0.00 | 65 | 1010.4 |
| 20260509101153 | 51 | 197 | 0.0 | 2.0 | 0.00 | 0.00 | 0.00 | 65 | 1010.4 |
| 20260509100650 | 51 | 229 | 1.0 | 3.0 | 0.00 | 0.00 | 0.00 | 65 | 1010.6 |
| 20260509100147 | 51 | 200 | 1.0 | 2.0 | 0.00 | 0.00 | 0.00 | 65 | 1010.6 |
| 20260509095644 | 51 | 207 | 1.0 | 2.0 | 0.00 | 0.00 | 0.00 | 65 | 1010.5 |
| 20260509095141 | 52 | 232 | 1.0 | 2.0 | 0.00 | 0.00 | 0.00 | 64 | 1010.5 |
| 20260509094637 | 51 | 256 | 1.0 | 6.0 | 0.00 | 0.00 | 0.00 | 64 | 1010.3 |
| 20260509094135 | 52 | 177 | 0.0 | 2.0 | 0.00 | 0.00 | 0.00 | 64 | 1010.5 |
| 20260509093633 | 52 | 184 | 2.0 | 2.0 | 0.00 | 0.00 | 0.00 | 64 | 1010.6 |
| 20260509093130 | 52 | 176 | 1.0 | 1.0 | 0.00 | 0.00 | 0.00 | 64 | 1010.7 |
| 20260509092628 | 52 | 177 | 1.0 | 2.0 | 0.00 | 0.00 | 0.00 | 64 | 1010.3 |
| 20260509092126 | 51 | 188 | 0.0 | 3.0 | 0.00 | 0.00 | 0.00 | 64 | 1010.6 |
| 20260509091624 | 51 | 177 | 0.0 | 2.0 | 0.00 | 0.00 | 0.00 | 64 | 1010.6 |
| 20260509091120 | 51 | 176 | 0.0 | 2.0 | 0.00 | 0.00 | 0.00 | 65 | 1010.6 |
| 20260509090618 | 51 | 174 | 0.0 | 1.0 | 0.00 | 0.00 | 0.00 | 65 | 1010.4 |
| 20260509090115 | 51 | 173 | 1.0 | 1.0 | 0.00 | 0.00 | 0.00 | 65 | 1010.4 |
| 20260509085612 | 51 | 174 | 0.0 | 1.0 | 0.00 | 0.00 | 0.00 | 65 | 1010.2 |
| 20260509085108 | 51 | 174 | 1.0 | 1.0 | 0.00 | 0.00 | 0.00 | 64 | 1010.3 |
| 20260509084605 | 51 | 175 | 0.0 | 0.0 | 0.00 | 0.00 | 0.00 | 64 | 1010.6 |
| 20260509084102 | 52 | 175 | 0.0 | 0.0 | 0.00 | 0.00 | 0.00 | 64 | 1010.7 |
| 20260509083600 | 52 | 177 | 0.0 | 0.0 | 0.00 | 0.00 | 0.00 | 63 | 1010.4 |
| 20260509083056 | 52 | 180 | 0.0 | 0.0 | 0.00 | 0.00 | 0.00 | 63 | 1010.4 |
| 20260509082553 | 52 | 180 | 1.0 | 2.0 | 0.00 | 0.00 | 0.00 | 62 | 1010.5 |
| 20260509082050 | 52 | 180 | 0.0 | 0.0 | 0.00 | 0.00 | 0.00 | 62 | 1010.5 |
| 20260509081547 | 53 | 181 | 0.0 | 2.0 | 0.00 | 0.00 | 0.00 | 62 | 1010.5 |
| 20260509081044 | 53 | 195 | 0.0 | 2.0 | 0.00 | 0.00 | 0.00 | 61 | 1010.6 |
| 20260509080542 | 53 | 189 | 0.0 | 2.0 | 0.00 | 0.00 | 0.00 | 61 | 1010.7 |
| 20260509080040 | 53 | 183 | 1.0 | 2.0 | 0.00 | 0.00 | 0.00 | 62 | 1010.7 |
| 20260509075537 | 53 | 189 | 0.0 | 2.0 | 0.00 | 0.00 | 0.00 | 61 | 1010.8 |
| 20260509075035 | 53 | 194 | 1.0 | 2.0 | 0.00 | 0.00 | 0.00 | 61 | 1010.9 |
| 20260509074532 | 53 | 197 | 0.0 | 0.0 | 0.00 | 0.00 | 0.00 | 61 | 1010.8 |
| 20260509074028 | 53 | 196 | 0.0 | 1.0 | 0.00 | 0.00 | 0.00 | 61 | 1010.7 |
| 20260509073525 | 53 | 179 | 0.0 | 1.0 | 0.00 | 0.00 | 0.00 | 61 | 1010.9 |
| 20260509073021 | 53 | 182 | 2.0 | 3.0 | 0.00 | 0.00 | 0.00 | 62 | 1011.0 |
| 20260509072518 | 53 | 188 | 0.0 | 0.0 | 0.00 | 0.00 | 0.00 | 61 | 1011.0 |
| 20260509072015 | 53 | 183 | 1.0 | 2.0 | 0.00 | 0.00 | 0.00 | 61 | 1011.0 |
| 20260509071512 | 53 | 185 | 1.0 | 1.0 | 0.00 | 0.00 | 0.00 | 61 | 1011.0 |
| 20260509071009 | 54 | 227 | 1.0 | 2.0 | 0.00 | 0.00 | 0.00 | 60 | 1011.0 |
| 20260509070506 | 54 | 183 | 1.0 | 2.0 | 0.00 | 0.00 | 0.00 | 60 | 1010.9 |
| 20260509070002 | 54 | 196 | 1.0 | 2.0 | 0.00 | 0.00 | 0.00 | 59 | 1010.9 |
| 20260509065458 | 54 | 186 | 1.0 | 1.0 | 0.00 | 0.00 | 0.00 | 60 | 1011.0 |
| 20260509064954 | 53 | 188 | 1.0 | 2.0 | 0.00 | 0.00 | 0.00 | 61 | 1011.1 |
| 20260509064452 | 53 | 216 | 1.0 | 3.0 | 0.00 | 0.00 | 0.00 | 62 | 1010.9 |
| 20260509063950 | 53 | 181 | 0.0 | 2.0 | 0.00 | 0.00 | 0.00 | 62 | 1010.9 |
| 20260509063445 | 53 | 193 | 2.0 | 2.0 | 0.00 | 0.00 | 0.00 | 62 | 1010.9 |
| 20260509062942 | 53 | 201 | 1.0 | 3.0 | 0.00 | 0.00 | 0.00 | 62 | 1011.0 |
| 20260509062439 | 54 | 184 | 0.0 | 1.0 | 0.00 | 0.00 | 0.00 | 61 | 1011.0 |
| 20260509061937 | 54 | 190 | 1.0 | 1.0 | 0.00 | 0.00 | 0.00 | 60 | 1011.3 |
| 20260509061434 | 55 | 207 | 1.0 | 2.0 | 0.00 | 0.00 | 0.00 | 60 | 1011.0 |
| 20260509060931 | 55 | 264 | 2.0 | 3.0 | 0.00 | 0.00 | 0.00 | 59 | 1010.9 |
| 20260509060429 | 55 | 191 | 0.0 | 2.0 | 0.00 | 0.00 | 0.00 | 58 | 1010.8 |
| 20260509055924 | 55 | 239 | 3.0 | 3.0 | 0.00 | 0.00 | 0.00 | 59 | 1011.0 |
| 20260509055419 | 55 | 176 | 1.0 | 2.0 | 0.00 | 0.00 | 0.00 | 59 | 1010.8 |
| 20260509054916 | 54 | 166 | 1.0 | 1.0 | 0.00 | 0.00 | 0.00 | 60 | 1010.9 |
| 20260509054413 | 54 | 165 | 0.0 | 1.0 | 0.00 | 0.00 | 0.00 | 60 | 1010.8 |
| 20260509053911 | 54 | 165 | 0.0 | 1.0 | 0.00 | 0.00 | 0.00 | 60 | 1010.9 |
| 20260509053409 | 54 | 165 | 1.0 | 1.0 | 0.00 | 0.00 | 0.00 | 61 | 1010.7 |
| 20260509052906 | 55 | 165 | 0.0 | 1.0 | 0.00 | 0.00 | 0.00 | 60 | 1010.7 |
| 20260509052403 | 55 | 165 | 0.0 | 1.0 | 0.00 | 0.00 | 0.00 | 59 | 1010.7 |
| 20260509051901 | 55 | 167 | 0.0 | 1.0 | 0.00 | 0.00 | 0.00 | 58 | 1010.7 |
| 20260509051359 | 55 | 173 | 0.0 | 0.0 | 0.00 | 0.00 | 0.00 | 58 | 1010.7 |
| 20260509050856 | 55 | 170 | 0.0 | 0.0 | 0.00 | 0.00 | 0.00 | 57 | 1010.5 |
| 20260509050352 | 56 | 170 | 0.0 | 0.0 | 0.00 | 0.00 | 0.00 | 57 | 1010.8 |
| 20260509045849 | 56 | 171 | 0.0 | 0.0 | 0.00 | 0.00 | 0.00 | 57 | 1010.8 |
| 20260509045346 | 56 | 171 | 0.0 | 0.0 | 0.00 | 0.00 | 0.00 | 57 | 1010.6 |
| 20260509044843 | 56 | 171 | 0.0 | 0.0 | 0.00 | 0.00 | 0.00 | 56 | 1010.6 |
| 20260509044341 | 57 | 171 | 0.0 | 0.0 | 0.00 | 0.00 | 0.00 | 55 | 1010.6 |
| 20260509043837 | 57 | 171 | 0.0 | 0.0 | 0.00 | 0.00 | 0.00 | 54 | 1010.7 |
| 20260509043333 | 57 | 172 | 0.0 | 0.0 | 0.00 | 0.00 | 0.00 | 54 | 1011.0 |
| 20260509042829 | 58 | 172 | 0.0 | 0.0 | 0.00 | 0.00 | 0.00 | 53 | 1010.9 |
| 20260509042326 | 58 | 172 | 0.0 | 0.0 | 0.00 | 0.00 | 0.00 | 52 | 1010.7 |
| 20260509041823 | 58 | 173 | 0.0 | 0.0 | 0.00 | 0.00 | 0.00 | 52 | 1010.7 |
| 20260509041320 | 59 | 173 | 0.0 | 0.0 | 0.00 | 0.00 | 0.00 | 52 | 1010.9 |
| 20260509040818 | 59 | 173 | 0.0 | 0.0 | 0.00 | 0.00 | 0.00 | 51 | 1010.6 |
| 20260509040315 | 59 | 174 | 0.0 | 0.0 | 0.00 | 0.00 | 0.00 | 51 | 1010.7 |
| 20260509035812 | 59 | 177 | 1.0 | 1.0 | 0.00 | 0.00 | 0.00 | 51 | 1010.9 |
| 20260509035309 | 59 | 161 | 1.0 | 1.0 | 0.00 | 0.00 | 0.00 | 52 | 1010.7 |
| 20260509034805 | 59 | 157 | 0.0 | 0.0 | 0.00 | 0.00 | 0.00 | 52 | 1010.5 |
| 20260509034303 | 59 | 157 | 1.0 | 1.0 | 0.00 | 0.00 | 0.00 | 52 | 1010.8 |
| 20260509033800 | 59 | 157 | 0.0 | 0.0 | 0.00 | 0.00 | 0.00 | 52 | 1010.6 |
| 20260509033257 | 59 | 157 | 0.0 | 0.0 | 0.00 | 0.00 | 0.00 | 52 | 1010.5 |
| 20260509032754 | 59 | 157 | 0.0 | 0.0 | 0.00 | 0.00 | 0.00 | 52 | 1010.5 |
| 20260509032251 | 60 | 157 | 0.0 | 0.0 | 0.00 | 0.00 | 0.00 | 51 | 1010.5 |
| 20260509031748 | 60 | 157 | 0.0 | 0.0 | 0.00 | 0.00 | 0.00 | 50 | 1010.2 |
| 20260509031246 | 60 | 157 | 0.0 | 0.0 | 0.00 | 0.00 | 0.00 | 50 | 1010.3 |
| 20260509030744 | 60 | 157 | 0.0 | 0.0 | 0.00 | 0.00 | 0.00 | 51 | 1010.3 |
| 20260509030241 | 60 | 157 | 0.0 | 1.0 | 0.00 | 0.00 | 0.00 | 51 | 1010.4 |
| 20260509025738 | 60 | 157 | 0.0 | 0.0 | 0.00 | 0.00 | 0.00 | 53 | 1010.3 |
| 20260509025233 | 60 | 157 | 0.0 | 0.0 | 0.00 | 0.00 | 0.00 | 54 | 1010.0 |
| 20260509024728 | 60 | 157 | 0.0 | 0.0 | 0.00 | 0.00 | 0.00 | 53 | 1010.3 |
| 20260509024225 | 60 | 157 | 0.0 | 0.0 | 0.00 | 0.00 | 0.00 | 53 | 1010.3 |
| 20260509023722 | 60 | 157 | 0.0 | 0.0 | 0.00 | 0.00 | 0.00 | 54 | 1010.0 |
| 20260509023219 | 60 | 157 | 0.0 | 0.0 | 0.00 | 0.00 | 0.00 | 54 | 1009.8 |
| 20260509022715 | 60 | 157 | 0.0 | 0.0 | 0.00 | 0.00 | 0.00 | 54 | 1010.0 |
| 20260509022214 | 61 | 157 | 0.0 | 0.0 | 0.00 | 0.00 | 0.00 | 54 | 1010.0 |
| 20260509021710 | 61 | 157 | 0.0 | 0.0 | 0.00 | 0.00 | 0.00 | 53 | 1009.9 |
| 20260509021208 | 61 | 157 | 0.0 | 0.0 | 0.00 | 0.00 | 0.00 | 52 | 1010.0 |
| 20260509020705 | 62 | 157 | 0.0 | 0.0 | 0.00 | 0.00 | 0.00 | 51 | 1009.7 |
| 20260509020202 | 63 | 157 | 0.0 | 0.0 | 0.00 | 0.00 | 0.00 | 49 | 1009.6 |
| 20260509015701 | 63 | 157 | 0.0 | 1.0 | 0.00 | 0.00 | 0.00 | 48 | 1009.7 |
| 20260509015158 | 64 | 157 | 0.0 | 0.0 | 0.00 | 0.00 | 0.00 | 48 | 1009.6 |
| 20260509014654 | 64 | 157 | 0.0 | 0.0 | 0.00 | 0.00 | 0.00 | 45 | 1009.6 |
| 20260509014151 | 64 | 157 | 0.0 | 0.0 | 0.00 | 0.00 | 0.00 | 45 | 1009.8 |
| 20260509013648 | 65 | 157 | 0.0 | 0.0 | 0.00 | 0.00 | 0.00 | 43 | 1009.9 |
| 20260509013144 | 66 | 157 | 0.0 | 0.0 | 0.00 | 0.00 | 0.00 | 42 | 1009.6 |
| 20260509012640 | 67 | 157 | 0.0 | 0.0 | 0.00 | 0.00 | 0.00 | 40 | 1009.4 |
| 20260509012137 | 67 | 157 | 0.0 | 0.0 | 0.00 | 0.00 | 0.00 | 39 | 1009.7 |
| 20260509011635 | 68 | 157 | 0.0 | 0.0 | 0.00 | 0.00 | 0.00 | 39 | 1009.5 |
| 20260509011132 | 69 | 157 | 0.0 | 0.0 | 0.00 | 0.00 | 0.00 | 36 | 1009.6 |
| 20260509010630 | 70 | 158 | 0.0 | 0.0 | 0.00 | 0.00 | 0.00 | 36 | 1009.6 |
| 20260509010126 | 71 | 160 | 0.0 | 0.0 | 0.00 | 0.00 | 0.00 | 34 | 1009.5 |
| 20260509005624 | 72 | 166 | 0.0 | 1.0 | 0.00 | 0.00 | 0.00 | 33 | 1009.4 |
| 20260509005120 | 73 | 173 | 0.0 | 2.0 | 0.00 | 0.00 | 0.00 | 32 | 1009.7 |
| 20260509004616 | 73 | 249 | 0.0 | 3.0 | 0.00 | 0.00 | 0.00 | 32 | 1009.6 |
| 20260509004113 | 73 | 197 | 1.0 | 2.0 | 0.00 | 0.00 | 0.00 | 32 | 1009.8 |
| 20260509003612 | 74 | 208 | 1.0 | 5.0 | 0.00 | 0.00 | 0.00 | 31 | 1009.6 |
| 20260509003109 | 75 | 301 | 5.0 | 6.0 | 0.00 | 0.00 | 0.00 | 30 | 1009.7 |
| 20260509002606 | 76 | 238 | 3.0 | 7.0 | 0.00 | 0.00 | 0.00 | 30 | 1009.6 |
| 20260509002103 | 76 | 164 | 0.0 | 1.0 | 0.00 | 0.00 | 0.00 | 30 | 1009.7 |
| 20260509001601 | 76 | 173 | 1.0 | 2.0 | 0.00 | 0.00 | 0.00 | 29 | 1009.7 |
| 20260509001056 | 76 | 155 | 1.0 | 2.0 | 0.00 | 0.00 | 0.00 | 29 | 1009.8 |
| 20260509000555 | 76 | 146 | 0.0 | 3.0 | 0.00 | 0.00 | 0.00 | 29 | 1009.8 |
| 20260509000050 | 76 | 182 | 1.0 | 2.0 | 0.00 | 0.00 | 0.00 | 29 | 1009.8 |
| 20260508235548 | 76 | 137 | 2.0 | 3.0 | 0.00 | 0.00 | 0.00 | 29 | 1009.6 |
| 20260508235044 | 76 | 86 | 1.0 | 5.0 | 0.00 | 0.00 | 0.00 | 30 | 1009.8 |
| 20260508234542 | 76 | 113 | 2.0 | 7.0 | 0.00 | 0.00 | 0.00 | 30 | 1009.7 |
| 20260508234039 | 77 | 275 | 3.0 | 3.0 | 0.00 | 0.00 | 0.00 | 29 | 1009.5 |
| 20260508233538 | 77 | 305 | 4.0 | 7.0 | 0.00 | 0.00 | 0.00 | 29 | 1009.7 |
| 20260508233035 | 77 | 301 | 2.0 | 5.0 | 0.00 | 0.00 | 0.00 | 29 | 1009.4 |
| 20260508232532 | 77 | 184 | 1.0 | 2.0 | 0.00 | 0.00 | 0.00 | 29 | 1009.6 |
| 20260508232029 | 77 | 334 | 5.0 | 7.0 | 0.00 | 0.00 | 0.00 | 29 | 1009.6 |
| 20260508231527 | 77 | 175 | 1.0 | 2.0 | 0.00 | 0.00 | 0.00 | 30 | 1009.8 |
| 20260508231023 | 77 | 57 | 3.0 | 9.0 | 0.00 | 0.00 | 0.00 | 30 | 1009.5 |
| 20260508230520 | 76 | 284 | 3.0 | 7.0 | 0.00 | 0.00 | 0.00 | 30 | 1009.6 |
| 20260508230017 | 78 | 177 | 0.0 | 8.0 | 0.00 | 0.00 | 0.00 | 29 | 1009.6 |
| 20260508225514 | 77 | 37 | 1.0 | 6.0 | 0.00 | 0.00 | 0.00 | 30 | 1009.5 |
| 20260508225010 | 78 | 289 | 3.0 | 9.0 | 0.00 | 0.00 | 0.00 | 29 | 1009.4 |
| 20260508224509 | 77 | 75 | 3.0 | 7.0 | 0.00 | 0.00 | 0.00 | 31 | 1009.4 |
| 20260508224005 | 78 | 15 | 1.0 | 5.0 | 0.00 | 0.00 | 0.00 | 30 | 1009.4 |
| 20260508223504 | 76 | 255 | 3.0 | 7.0 | 0.00 | 0.00 | 0.00 | 30 | 1009.5 |
| 20260508223001 | 78 | 304 | 2.0 | 2.0 | 0.00 | 0.00 | 0.00 | 29 | 1009.5 |
| 20260508222458 | 77 | 152 | 1.0 | 7.0 | 0.00 | 0.00 | 0.00 | 31 | 1009.6 |
| 20260508221954 | 78 | 274 | 2.0 | 7.0 | 0.00 | 0.00 | 0.00 | 31 | 1009.5 |
| 20260508221450 | 78 | 216 | 2.0 | 7.0 | 0.00 | 0.00 | 0.00 | 30 | 1009.4 |
| 20260508220946 | 78 | 111 | 1.0 | 2.0 | 0.00 | 0.00 | 0.00 | 31 | 1009.3 |
| 20260508220443 | 77 | 45 | 3.0 | 5.0 | 0.00 | 0.00 | 0.00 | 31 | 1009.3 |
| 20260508215939 | 76 | 25 | 2.0 | 11.0 | 0.00 | 0.00 | 0.00 | 32 | 1009.4 |
| 20260508215437 | 79 | 40 | 3.0 | 5.0 | 0.00 | 0.00 | 0.00 | 30 | 1009.4 |
| 20260508214933 | 78 | 156 | 2.0 | 9.0 | 0.00 | 0.00 | 0.00 | 31 | 1009.4 |
| 20260508214431 | 79 | 145 | 0.0 | 2.0 | 0.00 | 0.00 | 0.00 | 31 | 1009.3 |
| 20260508213926 | 77 | 250 | 5.0 | 6.0 | 0.00 | 0.00 | 0.00 | 32 | 1009.3 |
| 20260508213424 | 77 | 107 | 2.0 | 5.0 | 0.00 | 0.00 | 0.00 | 33 | 1009.4 |
| 20260508212919 | 79 | 56 | 1.0 | 3.0 | 0.00 | 0.00 | 0.00 | 33 | 1009.6 |
| 20260508212417 | 77 | 69 | 5.0 | 9.0 | 0.00 | 0.00 | 0.00 | 33 | 1009.5 |
| 20260508211912 | 77 | 314 | 2.0 | 7.0 | 0.00 | 0.00 | 0.00 | 32 | 1009.6 |
| 20260508211408 | 77 | 272 | 3.0 | 5.0 | 0.00 | 0.00 | 0.00 | 33 | 1009.4 |
| 20260508210906 | 78 | 108 | 4.0 | 9.0 | 0.00 | 0.00 | 0.00 | 33 | 1009.5 |
| 20260508210402 | 77 | 95 | 1.0 | 5.0 | 0.00 | 0.00 | 0.00 | 32 | 1009.5 |
| 20260508205858 | 78 | 158 | 0.0 | 3.0 | 0.00 | 0.00 | 0.00 | 33 | 1009.5 |
| 20260508205355 | 77 | 122 | 4.0 | 7.0 | 0.00 | 0.00 | 0.00 | 33 | 1009.5 |
| 20260508204851 | 77 | 119 | 1.0 | 5.0 | 0.00 | 0.00 | 0.00 | 33 | 1009.5 |
| 20260508204349 | 78 | 123 | 1.0 | 6.0 | 0.00 | 0.00 | 0.00 | 34 | 1009.6 |
| 20260508203844 | 77 | 143 | 1.0 | 3.0 | 0.00 | 0.00 | 0.00 | 33 | 1009.4 |
| 20260508203341 | 77 | 60 | 4.0 | 6.0 | 0.00 | 0.00 | 0.00 | 32 | 1009.6 |
| 20260508202836 | 78 | 308 | 4.0 | 7.0 | 0.00 | 0.00 | 0.00 | 32 | 1009.7 |
| 20260508202334 | 75 | 168 | 0.0 | 1.0 | 0.00 | 0.00 | 0.00 | 35 | 1009.6 |
| 20260508201831 | 76 | 9 | 3.0 | 5.0 | 0.00 | 0.00 | 0.00 | 33 | 1009.6 |
| 20260508201328 | 77 | 171 | 1.0 | 3.0 | 0.00 | 0.00 | 0.00 | 33 | 1009.6 |
| 20260508200824 | 76 | 156 | 1.0 | 5.0 | 0.00 | 0.00 | 0.00 | 34 | 1009.8 |
| 20260508200321 | 76 | 120 | 1.0 | 2.0 | 0.00 | 0.00 | 0.00 | 34 | 1009.9 |
| 20260508195817 | 76 | 101 | 0.0 | 3.0 | 0.00 | 0.00 | 0.00 | 36 | 1009.7 |
| 20260508195314 | 75 | 117 | 0.0 | 3.0 | 0.00 | 0.00 | 0.00 | 36 | 1009.7 |
| 20260508194810 | 74 | 126 | 1.0 | 3.0 | 0.00 | 0.00 | 0.00 | 36 | 1009.9 |
| 20260508194308 | 75 | 106 | 0.0 | 6.0 | 0.00 | 0.00 | 0.00 | 36 | 1009.9 |
| 20260508193805 | 74 | 117 | 0.0 | 3.0 | 0.00 | 0.00 | 0.00 | 36 | 1009.9 |
| 20260508193301 | 75 | 308 | 3.0 | 6.0 | 0.00 | 0.00 | 0.00 | 34 | 1009.9 |
| 20260508192757 | 76 | 103 | 1.0 | 6.0 | 0.00 | 0.00 | 0.00 | 34 | 1009.9 |
| 20260508192254 | 77 | 62 | 2.0 | 8.0 | 0.00 | 0.00 | 0.00 | 32 | 1009.6 |
| 20260508191752 | 80 | 279 | 2.0 | 5.0 | 0.00 | 0.00 | 0.00 | 31 | 1009.8 |
| 20260508191249 | 79 | 202 | 1.0 | 5.0 | 0.00 | 0.00 | 0.00 | 33 | 1009.6 |
| 20260508190746 | 79 | 102 | 1.0 | 3.0 | 0.00 | 0.00 | 0.00 | 33 | 1009.3 |
| 20260508190242 | 78 | 313 | 5.0 | 9.0 | 0.00 | 0.00 | 0.00 | 34 | 1009.3 |
| 20260508185738 | 79 | 174 | 1.0 | 8.0 | 0.00 | 0.00 | 0.00 | 34 | 1009.5 |
| 20260508185236 | 77 | 233 | 3.0 | 8.0 | 0.00 | 0.00 | 0.00 | 34 | 1009.4 |
| 20260508184733 | 77 | 328 | 4.0 | 7.0 | 0.00 | 0.00 | 0.00 | 34 | 1009.3 |
| 20260508184230 | 77 | 278 | 6.0 | 7.0 | 0.00 | 0.00 | 0.00 | 33 | 1009.4 |
| 20260508183727 | 78 | 359 | 3.0 | 9.0 | 0.00 | 0.00 | 0.00 | 34 | 1009.5 |
| 20260508183223 | 78 | 124 | 1.0 | 2.0 | 0.00 | 0.00 | 0.00 | 34 | 1009.4 |
| 20260508182719 | 77 | 301 | 2.0 | 5.0 | 0.00 | 0.00 | 0.00 | 36 | 1009.3 |
| 20260508182216 | 77 | 84 | 3.0 | 5.0 | 0.00 | 0.00 | 0.00 | 35 | 1009.3 |
| 20260508181712 | 76 | 330 | 2.0 | 6.0 | 0.00 | 0.00 | 0.00 | 35 | 1009.5 |
| 20260508181209 | 76 | 283 | 3.0 | 6.0 | 0.00 | 0.00 | 0.00 | 36 | 1009.7 |
| 20260508180706 | 76 | 170 | 3.0 | 5.0 | 0.00 | 0.00 | 0.00 | 37 | 1009.5 |
| 20260508180203 | 76 | 344 | 2.0 | 5.0 | 0.00 | 0.00 | 0.00 | 36 | 1009.7 |
| 20260508175659 | 77 | 133 | 1.0 | 3.0 | 0.00 | 0.00 | 0.00 | 37 | 1009.4 |